FW1256 Weather Reports


Display with metric or nautical units.
time (UTC)temp
F
wind
direction
speed
MPH
gust
MPH
rain 1hr
in
rain 24hr
in
rain mn
in
humidity
%
barometer
mb
20260906012628 80 270 0.0 9.0 0.00 0.00 0.00 81 1014.2
20260906012122 80 239 0.0 2.0 0.00 0.00 0.00 81 1014.3
20260906011619 81 0 0.0 5.0 0.00 0.00 0.00 80 1014.3
20260906011118 81 117 3.0 3.0 0.00 0.00 0.00 80 1014.2
20260906010614 81 188 0.0 2.0 0.00 0.00 0.00 79 1014.2
20260906010110 81 161 0.0 2.0 0.00 0.00 0.00 79 1014.0
20260906005604 82 270 0.0 3.0 0.00 0.00 0.00 79 1013.6
20260906005103 82 0 0.0 2.0 0.00 0.00 0.00 79 1013.9
20260906004602 82 172 0.0 2.0 0.00 0.00 0.00 79 1013.8
20260906004057 82 352 0.0 3.0 0.00 0.00 0.00 79 1013.7
20260906003552 83 209 0.0 1.0 0.00 0.00 0.00 79 1013.8
20260906003049 83 325 0.0 2.0 0.00 0.00 0.00 78 1013.8
20260906002549 83 261 1.0 3.0 0.00 0.00 0.00 77 1013.8
20260906002044 84 291 0.0 2.0 0.00 0.00 0.00 77 1013.7
20260906001539 84 203 0.0 2.0 0.00 0.00 0.00 77 1013.9
20260906001033 85 294 0.0 1.0 0.00 0.00 0.00 77 1013.8
20260906000529 85 246 0.0 3.0 0.00 0.00 0.00 76 1013.7
20260906000024 86 243 0.0 1.0 0.00 0.00 0.00 75 1013.7
20260905235518 87 18 0.0 2.0 0.00 0.00 0.00 74 1013.7
20260905235013 89 270 0.0 1.0 0.00 0.00 0.00 73 1013.5
20260905234509 88 315 0.0 2.0 0.00 0.00 0.00 72 1013.4
20260905234009 89 348 1.0 3.0 0.00 0.00 0.00 72 1013.3
20260905233504 89 286 0.0 2.0 0.00 0.00 0.00 71 1013.3
20260905233003 91 325 0.0 1.0 0.00 0.00 0.00 70 1013.2
20260905232459 91 270 0.0 1.0 0.00 0.00 0.00 68 1013.2
20260905231954 92 106 0.0 1.0 0.00 0.00 0.00 66 1013.3
20260905231450 91 0 0.0 0.0 0.00 0.00 0.00 67 1012.9
20260905230946 91 352 0.0 2.0 0.00 0.00 0.00 67 1013.1
20260905230444 92 320 0.0 3.0 0.00 0.00 0.00 67 1013.2
20260905225943 94 337 0.0 2.0 0.00 0.00 0.00 64 1013.2
20260905225438 95 278 1.0 2.0 0.00 0.00 0.00 62 1013.1
20260905224933 95 262 1.0 2.0 0.00 0.00 0.00 63 1013.2
20260905224429 94 283 1.0 3.0 0.00 0.00 0.00 66 1013.3
20260905223922 94 246 0.0 3.0 0.00 0.00 0.00 64 1013.1
20260905223421 95 228 0.0 4.0 0.00 0.00 0.00 63 1013.1
20260905222921 96 289 2.0 2.0 0.00 0.00 0.00 63 1013.0
20260905222420 96 270 0.0 1.0 0.00 0.00 0.00 63 1013.3
20260905221916 95 270 2.0 2.0 0.00 0.00 0.00 64 1013.2
20260905221413 95 257 0.0 3.0 0.00 0.00 0.00 64 1013.2
20260905220909 94 282 0.0 4.0 0.00 0.00 0.00 67 1013.2
20260905220404 93 263 0.0 3.0 0.00 0.00 0.00 69 1013.2
20260905215903 93 279 0.0 2.0 0.00 0.00 0.00 68 1013.1
20260905215359 91 331 2.0 3.0 0.00 0.00 0.00 72 1013.3
20260905214855 90 279 1.0 1.0 0.00 0.00 0.00 74 1013.2
20260905214350 90 270 0.0 1.0 0.00 0.00 0.00 75 1013.2
20260905213845 90 289 2.0 2.0 0.00 0.00 0.00 73 1013.3
20260905213342 91 286 0.0 3.0 0.00 0.00 0.00 72 1013.1
20260905212841 93 258 0.0 3.0 0.00 0.00 0.00 70 1013.1
20260905212336 93 270 0.0 2.0 0.00 0.00 0.00 69 1013.3
20260905211836 93 352 0.0 2.0 0.00 0.00 0.00 69 1012.9
20260905211331 91 249 1.0 2.0 0.00 0.00 0.00 71 1013.3
20260905210827 90 337 0.0 1.0 0.00 0.00 0.00 72 1013.2
20260905210322 91 180 2.0 2.0 0.00 0.00 0.00 69 1013.2
20260905205821 93 346 1.0 2.0 0.00 0.00 0.00 68 1013.1
20260905205316 94 304 3.0 3.0 0.00 0.00 0.00 67 1013.2
20260905204815 94 279 0.0 5.0 0.00 0.00 0.00 64 1013.3
20260905204311 94 270 0.0 2.0 0.00 0.00 0.00 66 1013.4
20260905203810 93 341 2.0 3.0 0.00 0.00 0.00 68 1013.2
20260905203306 94 308 2.0 2.0 0.00 0.00 0.00 66 1013.3
20260905202801 94 348 3.0 3.0 0.00 0.00 0.00 64 1013.2
20260905202256 94 216 2.0 2.0 0.00 0.00 0.00 63 1013.3
20260905201751 93 282 3.0 6.0 0.00 0.00 0.00 65 1013.5
20260905201246 93 276 2.0 3.0 0.00 0.00 0.00 67 1013.4
20260905200741 92 282 2.0 2.0 0.00 0.00 0.00 72 1013.7
20260905200237 93 307 0.0 2.0 0.00 0.00 0.00 67 1013.5
20260905195735 93 315 2.0 4.0 0.00 0.00 0.00 67 1013.6
20260905195230 95 8 2.0 3.0 0.00 0.00 0.00 62 1013.5
20260905194726 94 323 0.0 2.0 0.00 0.00 0.00 67 1013.5
20260905194225 92 180 0.0 3.0 0.00 0.00 0.00 66 1013.5
20260905193719 92 352 0.0 1.0 0.00 0.00 0.00 68 1013.4
20260905193214 92 278 0.0 2.0 0.00 0.00 0.00 68 1013.5
20260905192710 92 251 0.0 3.0 0.00 0.00 0.00 66 1013.6
20260905192206 93 335 4.0 4.0 0.00 0.00 0.00 62 1013.8
20260905191706 94 337 0.0 3.0 0.00 0.00 0.00 66 1013.6
20260905191203 94 300 0.0 3.0 0.00 0.00 0.00 63 1013.8
20260905190703 94 236 2.0 3.0 0.00 0.00 0.00 62 1013.7
20260905190201 93 354 0.0 2.0 0.00 0.00 0.00 65 1013.6
20260905185701 93 270 0.0 2.0 0.00 0.00 0.00 66 1013.7
20260905185155 93 270 2.0 2.0 0.00 0.00 0.00 66 1013.8
20260905184655 94 248 0.0 2.0 0.00 0.00 0.00 62 1013.8
20260905184154 94 270 0.0 2.0 0.00 0.00 0.00 63 1013.9
20260905183648 94 209 0.0 2.0 0.00 0.00 0.00 61 1013.9
20260905183143 95 287 2.0 3.0 0.00 0.00 0.00 61 1014.0
20260905182643 95 279 0.0 3.0 0.00 0.00 0.00 61 1014.1
20260905182143 96 270 0.0 3.0 0.00 0.00 0.00 62 1013.9
20260905181638 95 243 2.0 5.0 0.00 0.00 0.00 63 1014.1
20260905181137 94 311 0.0 5.0 0.00 0.00 0.00 66 1013.8
20260905180632 94 255 3.0 4.0 0.00 0.00 0.00 63 1014.1
20260905180127 93 265 2.0 6.0 0.00 0.00 0.00 62 1014.2
20260905175626 94 90 1.0 3.0 0.00 0.00 0.00 65 1014.2
20260905175122 93 294 0.0 4.0 0.00 0.00 0.00 62 1014.1
20260905174617 93 259 4.0 4.0 0.00 0.00 0.00 63 1014.4
20260905174113 93 285 3.0 4.0 0.00 0.00 0.00 65 1014.3
20260905173609 93 159 2.0 4.0 0.00 0.00 0.00 63 1014.5
20260905173104 93 282 0.0 4.0 0.00 0.00 0.00 65 1014.4
20260905172603 93 246 3.0 5.0 0.00 0.00 0.00 64 1014.1
20260905172058 93 308 2.0 3.0 0.00 0.00 0.00 65 1014.2
20260905171554 94 277 3.0 3.0 0.00 0.00 0.00 62 1014.2
20260905171050 93 287 2.0 5.0 0.00 0.00 0.00 62 1014.5
20260905170547 93 273 4.0 5.0 0.00 0.00 0.00 62 1014.5
20260905170041 93 159 2.0 4.0 0.00 0.00 0.00 61 1014.5
20260905165536 93 255 1.0 4.0 0.00 0.00 0.00 64 1014.5
20260905165032 92 206 3.0 3.0 0.00 0.00 0.00 63 1014.5
20260905164526 92 319 3.0 3.0 0.00 0.00 0.00 65 1014.7
20260905164021 93 307 2.0 5.0 0.00 0.00 0.00 61 1014.6
20260905163517 94 0 2.0 2.0 0.00 0.00 0.00 62 1014.4
20260905163013 93 276 2.0 4.0 0.00 0.00 0.00 61 1014.6
20260905162508 93 215 1.0 3.0 0.00 0.00 0.00 62 1014.7
20260905162003 93 270 0.0 3.0 0.00 0.00 0.00 62 1014.8
20260905161503 92 294 1.0 3.0 0.00 0.00 0.00 63 1014.5
20260905161000 91 285 3.0 5.0 0.00 0.00 0.00 65 1014.2
20260905160454 91 264 3.0 5.0 0.00 0.00 0.00 66 1014.5
20260905155954 91 328 2.0 3.0 0.00 0.00 0.00 65 1014.4
20260905155449 91 246 2.0 3.0 0.00 0.00 0.00 67 1014.4
20260905154947 90 236 2.0 3.0 0.00 0.00 0.00 67 1014.5
20260905154442 90 192 3.0 4.0 0.00 0.00 0.00 67 1014.4
20260905153938 91 326 2.0 3.0 0.00 0.00 0.00 66 1014.4
20260905153434 90 246 1.0 3.0 0.00 0.00 0.00 67 1014.1
20260905152933 90 270 0.0 4.0 0.00 0.00 0.00 67 1014.3
20260905152433 90 187 1.0 4.0 0.00 0.00 0.00 70 1014.6
20260905151928 90 270 2.0 3.0 0.00 0.00 0.00 68 1014.3
20260905151424 90 281 3.0 3.0 0.00 0.00 0.00 66 1014.4
20260905150919 89 246 0.0 2.0 0.00 0.00 0.00 69 1014.2
20260905150419 89 261 0.0 7.0 0.00 0.00 0.00 70 1014.1
20260905145915 89 258 2.0 3.0 0.00 0.00 0.00 72 1014.3
20260905145410 88 105 0.0 3.0 0.00 0.00 0.00 70 1014.1
20260905144909 87 348 0.0 1.0 0.00 0.00 0.00 74 1014.5
20260905144405 87 337 0.0 2.0 0.00 0.00 0.00 76 1014.3
20260905143904 86 279 0.0 3.0 0.00 0.00 0.00 76 1014.1
20260905143358 86 246 2.0 3.0 0.00 0.00 0.00 78 1014.0
20260905142857 85 234 0.0 2.0 0.00 0.00 0.00 78 1013.9
20260905142356 84 328 0.0 2.0 0.00 0.00 0.00 79 1013.9
20260905141852 84 261 0.0 2.0 0.00 0.00 0.00 82 1013.9
20260905141347 83 277 0.0 2.0 0.00 0.00 0.00 82 1013.9
20260905140843 82 326 0.0 2.0 0.00 0.00 0.00 82 1013.8
20260905140343 82 345 0.0 1.0 0.00 0.00 0.00 83 1013.7
20260905135841 81 90 0.0 0.0 0.00 0.00 0.00 84 1013.8
20260905135332 81 90 0.0 2.0 0.00 0.00 0.00 84 1014.0
20260905134827 80 180 0.0 0.0 0.00 0.00 0.00 86 1013.9
20260905134320 80 180 0.0 0.0 0.00 0.00 0.00 87 1014.1
20260905133815 80 328 0.0 0.0 0.00 0.00 0.00 88 1014.0
20260905133310 79 328 0.0 2.0 0.00 0.00 0.00 88 1014.1
20260905132809 79 261 0.0 2.0 0.00 0.00 0.00 89 1014.0
20260905132306 78 294 0.0 2.0 0.00 0.00 0.00 90 1014.1
20260905131759 78 283 0.0 1.0 0.00 0.00 0.00 91 1014.0
20260905131255 77 270 0.0 1.0 0.00 0.00 0.00 92 1014.0
20260905130749 77 270 0.0 0.0 0.00 0.00 0.00 93 1013.7
20260905130249 76 346 0.0 0.0 0.00 0.00 0.00 93 1013.9
20260905125744 76 345 0.0 1.0 0.00 0.00 0.00 94 1014.1
20260905125239 75 320 0.0 0.0 0.00 0.00 0.00 94 1013.8
20260905124736 75 320 0.0 2.0 0.00 0.00 0.00 94 1013.7
20260905124231 75 279 0.0 0.0 0.00 0.00 0.00 94 1013.6
20260905123726 75 352 0.0 0.0 0.00 0.00 0.00 94 1013.7
20260905123223 75 352 0.0 0.0 0.00 0.00 0.00 94 1013.9
20260905122723 74 352 0.0 0.0 0.00 0.00 0.00 94 1013.8
20260905122223 74 352 0.0 0.0 0.00 0.00 0.00 94 1013.5
20260905121718 74 0 0.0 0.0 0.00 0.00 0.00 94 1013.8
20260905121214 73 261 0.0 0.0 0.00 0.00 0.00 94 1013.6
20260905120713 73 345 0.0 0.0 0.00 0.00 0.00 94 1013.6
20260905120208 73 0 0.0 0.0 0.00 0.00 0.00 94 1013.6
20260905115708 73 0 1.0 1.0 0.00 0.00 0.00 94 1013.5
20260905115203 73 337 0.0 0.0 0.00 0.00 0.00 94 1013.4
20260905114702 73 337 0.0 0.0 0.00 0.00 0.00 94 1013.5
20260905114201 73 337 0.0 1.0 0.00 0.00 0.00 94 1013.4
20260905113655 73 352 0.0 0.0 0.00 0.00 0.00 94 1013.2
20260905113151 73 352 0.0 0.0 0.00 0.00 0.00 94 1013.4
20260905112650 73 352 0.0 0.0 0.00 0.00 0.00 94 1013.1
20260905112146 73 352 0.0 0.0 0.00 0.00 0.00 94 1013.1
20260905111646 73 352 0.0 0.0 0.00 0.00 0.00 94 1013.1
20260905111145 74 352 0.0 0.0 0.00 0.00 0.00 94 1013.2
20260905110644 74 90 0.0 0.0 0.00 0.00 0.00 94 1013.2
20260905110139 74 0 0.0 1.0 0.00 0.00 0.00 94 1013.1
20260905105635 74 0 0.0 1.0 0.00 0.00 0.00 94 1013.1
20260905105134 74 0 0.0 0.0 0.00 0.00 0.00 94 1013.1
20260905104629 74 0 0.0 0.0 0.00 0.00 0.00 94 1013.2
20260905104125 74 0 0.0 0.0 0.00 0.00 0.00 94 1013.3
20260905103620 74 0 0.0 0.0 0.00 0.00 0.00 94 1013.2
20260905103116 74 0 0.0 0.0 0.00 0.00 0.00 94 1013.4
20260905102611 74 0 0.0 0.0 0.00 0.00 0.00 94 1013.5
20260905102108 74 0 0.0 0.0 0.00 0.00 0.00 94 1013.1
20260905101606 74 0 0.0 0.0 0.00 0.00 0.00 94 1013.2
20260905101104 74 0 0.0 0.0 0.00 0.00 0.00 94 1013.1
20260905100601 74 0 0.0 0.0 0.00 0.00 0.00 94 1013.2
20260905100055 74 0 0.0 0.0 0.00 0.00 0.00 94 1013.2
20260905095549 74 345 0.0 0.0 0.00 0.00 0.00 94 1013.2
20260905095045 74 5 0.0 0.0 0.00 0.00 0.00 94 1013.3
20260905094539 74 5 0.0 0.0 0.00 0.00 0.00 94 1013.2
20260905094039 74 5 0.0 0.0 0.00 0.00 0.00 94 1013.1
20260905093533 74 5 0.0 0.0 0.00 0.00 0.00 94 1013.1
20260905093030 74 5 0.0 0.0 0.00 0.00 0.00 94 1013.2
20260905092530 74 5 0.0 0.0 0.00 0.00 0.00 94 1013.3
20260905092026 75 5 0.0 0.0 0.00 0.00 0.00 94 1013.2
20260905091524 74 0 0.0 0.0 0.00 0.00 0.00 94 1013.3
20260905091019 74 270 0.0 0.0 0.00 0.00 0.00 94 1013.3
20260905090519 74 270 0.0 0.0 0.00 0.00 0.00 94 1013.1
20260905090014 75 6 0.0 0.0 0.00 0.00 0.00 94 1013.1
20260905085512 75 6 0.0 0.0 0.00 0.00 0.00 94 1013.4
20260905085009 75 6 0.0 0.0 0.00 0.00 0.00 94 1013.3
20260905084503 75 0 0.0 0.0 0.00 0.00 0.00 94 1013.2
20260905083957 75 0 0.0 0.0 0.00 0.00 0.00 94 1013.4
20260905083453 75 352 0.0 0.0 0.00 0.00 0.00 94 1013.2
20260905082949 75 352 0.0 0.0 0.00 0.00 0.00 94 1013.2
20260905082444 75 352 0.0 0.0 0.00 0.00 0.00 94 1013.1
20260905081939 75 352 0.0 0.0 0.00 0.00 0.00 94 1013.3
20260905081434 75 352 0.0 0.0 0.00 0.00 0.00 94 1013.4
20260905080933 75 352 0.0 1.0 0.00 0.00 0.00 94 1013.4
20260905080428 75 294 0.0 1.0 0.00 0.00 0.00 94 1013.3
20260905075927 75 0 0.0 0.0 0.00 0.00 0.00 94 1013.5
20260905075421 75 0 0.0 0.0 0.00 0.00 0.00 94 1013.5
20260905074920 75 0 0.0 0.0 0.00 0.00 0.00 94 1013.7
20260905074416 75 345 0.0 0.0 0.00 0.00 0.00 94 1013.3
20260905073912 75 345 0.0 0.0 0.00 0.00 0.00 94 1013.4
20260905073407 75 345 0.0 0.0 0.00 0.00 0.00 94 1013.7
20260905072902 75 345 0.0 0.0 0.00 0.00 0.00 94 1013.6
20260905072356 75 345 0.0 0.0 0.00 0.00 0.00 94 1013.5
20260905071853 75 345 0.0 0.0 0.00 0.00 0.00 94 1013.6
20260905071349 75 345 0.0 0.0 0.00 0.00 0.00 94 1013.6
20260905070843 75 345 0.0 1.0 0.00 0.00 0.00 94 1013.5
20260905070340 76 320 0.0 0.0 0.00 0.00 0.00 94 1013.8
20260905065839 76 320 0.0 0.0 0.00 0.00 0.00 94 1013.7
20260905065337 76 320 0.0 0.0 0.00 0.00 0.00 94 1013.6
20260905064832 76 320 0.0 0.0 0.00 0.00 0.00 94 1013.8
20260905064328 76 320 0.0 0.0 0.00 0.00 0.00 94 1013.7
20260905063826 76 320 0.0 0.0 0.00 0.00 0.00 94 1013.6
20260905063322 75 320 0.0 0.0 0.00 0.00 0.00 93 1013.9
20260905062818 76 320 0.0 0.0 0.00 0.00 0.00 93 1013.8
20260905062313 76 320 0.0 0.0 0.00 0.00 0.00 93 1014.0
20260905061808 76 345 0.0 0.0 0.00 0.00 0.00 93 1014.1
20260905061302 76 8 0.0 0.0 0.00 0.00 0.00 93 1013.9
20260905060757 76 0 0.0 0.0 0.00 0.00 0.00 93 1013.7
20260905060254 76 0 0.0 0.0 0.00 0.00 0.00 93 1014.0
20260905055752 76 0 0.0 0.0 0.00 0.00 0.00 93 1014.0
20260905055247 76 0 0.0 0.0 0.00 0.00 0.00 93 1014.0
20260905054742 76 0 0.0 0.0 0.00 0.00 0.00 93 1014.0
20260905054238 76 286 0.0 0.0 0.00 0.00 0.00 93 1014.0
20260905053737 76 286 0.0 0.0 0.00 0.00 0.00 93 1013.9
20260905053233 76 286 0.0 0.0 0.00 0.00 0.00 92 1013.9
20260905052732 76 353 0.0 0.0 0.00 0.00 0.00 92 1013.7
20260905052227 76 286 0.0 1.0 0.00 0.00 0.00 92 1013.6
20260905051727 77 337 0.0 0.0 0.00 0.00 0.00 92 1013.5
20260905051224 77 354 1.0 1.0 0.00 0.00 0.00 92 1013.7
20260905050720 77 294 0.0 0.0 0.00 0.00 0.00 92 1013.8
20260905050217 77 286 0.0 1.0 0.00 0.00 0.00 92 1014.1
20260905045716 77 172 0.0 0.0 0.00 0.00 0.00 92 1014.0
20260905045211 77 345 0.0 0.0 0.00 0.00 0.00 92 1013.8
20260905044706 77 345 0.0 0.0 0.00 0.00 0.00 91 1013.8
20260905044201 77 345 0.0 0.0 0.00 0.00 0.00 91 1013.9
20260905043700 77 345 0.0 0.0 0.00 0.00 0.00 91 1013.9
20260905043155 78 345 0.0 0.0 0.00 0.00 0.00 91 1013.8
20260905042654 78 294 0.0 0.0 0.00 0.00 0.00 91 1013.8
20260905042149 78 7 0.0 1.0 0.00 0.00 0.00 90 1013.6
20260905041644 78 0 0.0 0.0 0.00 0.00 0.00 90 1013.6
20260905041140 78 345 0.0 0.0 0.00 0.00 0.00 90 1013.6
20260905040635 78 345 0.0 1.0 0.00 0.00 0.00 90 1013.7
20260905040133 78 354 0.0 0.0 0.00 0.00 0.00 90 1013.7
20260905035629 78 354 0.0 0.0 0.00 0.00 0.00 89 1013.8
20260905035125 78 354 0.0 0.0 0.00 0.00 0.00 88 1013.8
20260905034621 78 354 0.0 0.0 0.00 0.00 0.00 88 1013.7
20260905034120 78 354 0.0 0.0 0.00 0.00 0.00 89 1013.5
20260905033620 78 354 0.0 1.0 0.00 0.00 0.00 89 1013.6
20260905033116 78 172 0.0 0.0 0.00 0.00 0.00 89 1013.5
20260905032615 78 172 0.0 0.0 0.00 0.00 0.00 89 1013.6
20260905032110 78 172 0.0 0.0 0.00 0.00 0.00 90 1014.1
20260905031606 78 172 0.0 0.0 0.00 0.00 0.00 90 1013.9
20260905031106 78 172 0.0 0.0 0.00 0.00 0.00 90 1013.8
20260905030601 78 172 0.0 0.0 0.00 0.00 0.00 90 1013.9
20260905030056 78 172 0.0 0.0 0.00 0.00 0.00 90 1013.8
20260905025551 78 172 0.0 0.0 0.00 0.00 0.00 90 1014.1
20260905025047 78 172 0.0 0.0 0.00 0.00 0.00 90 1013.8
20260905024542 78 346 0.0 0.0 0.00 0.00 0.00 90 1013.8
20260905024038 79 346 0.0 0.0 0.00 0.00 0.00 90 1013.9
20260905023532 79 345 0.0 0.0 0.00 0.00 0.00 90 1013.9
20260905023027 79 345 0.0 0.0 0.00 0.00 0.00 90 1013.9
20260905022527 79 345 0.0 0.0 0.00 0.00 0.00 90 1013.7
20260905022022 79 345 0.0 0.0 0.00 0.00 0.00 89 1014.1
20260905021521 79 345 0.0 0.0 0.00 0.00 0.00 89 1013.8
20260905021017 80 345 0.0 0.0 0.00 0.00 0.00 89 1013.7
20260905020516 80 165 0.0 0.0 0.00 0.00 0.00 88 1013.7
20260905020012 80 165 0.0 0.0 0.00 0.00 0.00 87 1013.7
20260905015509 80 165 0.0 0.0 0.00 0.00 0.00 87 1013.4
20260905015010 80 165 0.0 0.0 0.00 0.00 0.00 87 1013.5
20260905014504 80 165 0.0 0.0 0.00 0.00 0.00 86 1013.4
20260905014000 80 165 0.0 0.0 0.00 0.00 0.00 86 1013.3
20260905013456 80 165 0.0 0.0 0.00 0.00 0.00 85 1013.4
20260905012951 80 165 0.0 0.0 0.00 0.00 0.00 85 1013.2